Tracking 19489 objects as of 23-Jan-2019
HD Live streaming from Space Station
objects crossing your sky now

SL-8 R/B

Track SL-8 R/B now!
10-day predictions


NORAD ID: 10020
Int'l Code: 1977-039B
Perigee: 954.3 km
Apogee: 1,001.9 km
Inclination: 82.9 °
Period: 104.5 minutes
Semi major axis: 7349 km
RCS: 4.936 m2 (large)
Launch date: May 25, 1977
Source: Commonwealth of Independent States (former USSR) (CIS)
Launch site: PLESETSK MISSILE AND SPACE COMPLEX (PKMTR)

Note: This is a ROCKET BODY
aabbcc
Your satellite tracking list
Your tracking list is empty




NASA's NSSDC Master Catalog

Two Line Element Set (TLE):
1 10020U 77039B   19021.82865838  .00000059  00000-0  43156-4 0  9997
2 10020  82.9464 289.0213 0032383 112.1842 248.2757 13.78003037 94281
Source of the keplerian elements: AFSPC